DELTA 1 DEB, 2223

Orbit data source: Space-Track

DELTA 1 DEB, 2223 is space debris in SSO originally from a launch on Mon, 28 Feb 1966 UTC launched from the Air Force Eastern Test Range (AFETR). Debris objects in space refer to the collection of defunct objects orbiting the Earth. Examples of debris include non-operational satellites, rocket bodies, and fragments generated from explosions, collisions, or faulty payload assembly.

Loading next visibility...
Identifier
2223, 1966-016C
Orbit
SSO
Last TLE update
10 hours ago
Origin
Manufacturer
Unknown
Mission
Spacecraft
Bus & Motor
Unknown
Mass
1 kg wet, 1 kg dry
Launch date (UTC)
1966-02-28 (59 years ago)
Launch vehicle
Unknown
Launch site
Air Force Eastern Test Range (AFETR)
Object type
Payload
Rocket body
Debris
Shape & HBR
Cyl + 1 Cable, 3.5 m
Radar Cross Section
3.500 m², Small (<0.1 m²)

Expand to show TLE details & history

TLE from 10 hours ago
0 DELTA 1 DEB
1 02223U 66016C   25188.85413064 -.00000019  00000-0  94310-4 0  9995
2 02223 100.7712 224.1754 0093117 229.4515 314.3170 12.87755021782636
Epoch: 2025-07-07T20:29Z
TLE epoch observation values (Epoch: 2025-07-07T20:29:56.887Z)
Latitude
-3.07141°
Longitude
170.04894°
Altitude
1,263.879 km
Speed
7.247 km/s
True Right ascension
02h 54m 22s
True Declination
-3° 03' 15"
Sunlit
Object was in daylight at epoch
Visualization orbit readout
Latitude
-17.89917°
Longitude
-5.45554°
Altitude
1,345.034 km
Speed
7.172 km/s
Apparent Right ascension
12h 25m 49s
Apparent Declination
-47° 35' 46"
Sunlit
Object is in partial shadow
Visualization observer readout
Local Sidereal Time
18:43:35
Azimuth
231.603° WSW
Elevation
-30.924°
Doppler factor
1
Orbital elements
Apogee altitude
1,379.458 km
Perigee altitude
1,236.318 km
Semi-major axis
7,686.025 km
Eccentricity
0.00931
Inclination
100.7712°
RAAN
224.1754°
Arg. of periapsis
229.4515°
True anomaly
Unknown
Mean anomaly
314.317°
Eccentric anomaly
Unknown
Mean motion
3.221 °/min
Orbital period
111.77 mins
BSTAR
0.00009431
Loading maneuver chart data...
Loading SW <> Apogee altitude chart data...
Loading historical data...
Loading historical data...
Loading historical data...
Loading historical data...
Loading historical data...
Loading historical data...
Loading historical data...
Other satellites on launch #16 in the year 1966 (1966-02-28 UTC)

DELTA 1 DEB Visibility forecast

Observer location: undefined°, undefined°

Span
Click to sort rows by Start time (UTC) header in descending order
Start Az.
Max El. time (UTC)
Max El. Az.
Max El.
End time (UTC)
End Az.
14 mins2025-07-08 14:48:10.585Z24.486° NE2025-07-08 14:56:10.585Z116.213° SE39.348°2025-07-08 15:02:10.585Z177.048° S
11 mins2025-07-08 16:40:10.585Z350.896° N2025-07-08 16:45:10.585Z300.866° NW27.421°2025-07-08 16:51:10.585Z244.293° WSW
13 mins2025-07-09 01:30:10.585Z135.768° SSE2025-07-09 01:36:10.585Z69.688° E38.634°2025-07-09 01:43:10.585Z354.811° N
12 mins2025-07-09 03:21:10.585Z210.07° SW2025-07-09 03:26:10.585Z259.691° W28.72°2025-07-09 03:33:10.585Z324.125° NNW
|